Iridium 96 - Orbit

View from above orbital plane
View from above orbital plane
View from above satellite
View from above satellite

Ground track
Ground track

The orbit data is extracted from the following two-line orbital elements,

1 27376U 02005E   13143.24302902  .00000367  00000-0  12416-3 0    91
2 27376 087.1947 204.5758 0002640 200.4396 159.6695 14.34237471603130
Epoch (UTC): 23 May 2013 05:49:57
Eccentricity: 0.0002640
inclination: 87.1947°
perigee height: 776 km
apogee height: 779 km
right ascension of ascending node: 204.5758°
argument of perigee: 200.4396°
revolutions per day: 14.34237471
mean anomaly at epoch: 159.6695°
orbit number at epoch: 60313

The dashed part of the orbit path shows where the satellite is in the earth's shadow,  

Developed and maintained by Chris Peat, Heavens-Above GmbH. Please read the updated FAQ before sending e-mail. Imprint. DLR